Regional Weather Roundup
Issued by NWS Cleveland, OH

Home | Current Version | Previous Version | Text Only | Print | Product List | Glossary Off
Versions: 1 2 3 4 5 6 7 8 9 10 11 12 13 14 15 16 17 18 19 20 21 22 23 24 25 26 27 28 29 30 31 32 33 34 35 36 37 38 39 40 41 42 43 44 45 46 47 48 49 50

000
ASUS41 KCLE 240110
RWRCLE
OHIO REGIONAL WEATHER ROUNDUP
NATIONAL WEATHER SERVICE WILMINGTON, OH
900 PM EDT WED JUL 23 2014

NOTE: "FAIR" INDICATES FEW OR NO CLOUDS BELOW 12,000 FEET WITH NO
SIGNIFICANT WEATHER AND/OR OBSTRUCTIONS TO VISIBILITY.

OHZ001>008-015>018-024>027-034-035-043-044-240200-
   NORTHWEST OHIO

CITY           SKY/WX    TMP DP  RH WIND       PRES   REMARKS
DEFIANCE       CLOUDY    70  57  63 NE6       30.05R
FINDLAY        PTCLDY    67  60  78 NE9       30.04S
TOLEDO EXPRESS CLOUDY    69  56  62 NE6       30.06R
TOLEDO METCALF MOCLDY    66  58  75 E5        30.06S
LIMA           CLOUDY    67  61  81 E10       30.05R
$$

OHZ009>014-019>023-028>033-038-089-240200-
   NORTHEAST OHIO

CITY           SKY/WX    TMP DP  RH WIND       PRES   REMARKS
CLE-HOPKINS    MOCLDY    65  55  70 N12       30.07R
CLE-LAKEFRONT  CLOUDY    66  57  72 N14       30.03R
CUY CO. ARPT   MOCLDY    66  59  77 N12       30.05R
LORAIN-ELYRIA  MOCLDY    67  56  67 N10       30.06S
ASHTABULA      CLOUDY    67  58  72 N6        30.02R
AKRON-CANTON   CLOUDY    65  57  75 N9        30.03F
WOOSTER        MOCLDY    64  56  75 N8        30.05R
MANSFIELD      CLOUDY    62  58  86 N10       30.06S
YOUNGSTOWN     CLOUDY    65  59  81 NW8       30.02R
$$

OHZ042-051>053-060>062-070>072-077>081-240200-
  SOUTHWEST OHIO

CITY           SKY/WX    TMP DP  RH WIND       PRES   REMARKS
CINC-COVINGTON CLOUDY    77  68  73 N9        29.98R
CINC-LUNKEN    CLOUDY    78  69  73 N16       29.97R
HAMILTON       MOCLDY    73  68  84 N12G17    30.00R
DAYTON         CLOUDY    69  66  90 NE12      30.03S
WRIGHT-PAT AFB LGT RAIN  68  67  94 N13       30.02R FOG
DAYTON GENERAL CLOUDY    70  66  87 N13       30.01R
WILMINGTON     CLOUDY    71  66  84 N14G20    30.00R
$$

OHZ036-037-039>041-045>050-054>059-063>069-073>076-082>088-240200-
  CENTRAL AND SOUTHEAST OHIO

CITY           SKY/WX    TMP DP  RH WIND       PRES   REMARKS
COLUMBUS       CLOUDY    70  64  81 N15G23    30.00R
OSU AIRPORT    CLOUDY    68  63  84 N9        30.01R
BOLTON FIELD   HVY RAIN  68  66  93 N9        30.01R
RICKENBACK AFB RAIN      72  64  76 N16       29.99R
NEWARK         CLOUDY    69  61  75 N10       30.01R
MARION         PTCLDY    64  59  83 NE16      30.04F
LANCASTER      MOCLDY    72  66  81 N9        29.99R
ZANESVILLE     CLOUDY    69  61  75 N9        30.01R
NEW PHILLY     CLOUDY    67  61  81 VRB5      30.02R
$$



USA.gov is the U.S. government's official web portal to all federal, state and local government web resources and services.